Newport Airport, OR

8:40 AM PDT on June 27, 2017 (GMT -0700)
Newport Municipal

Weather History for KONP - January, 2012

Change the Weather History Date:

Wednesday, January 18, 2012

  Actual Average Record
Temperature  
Mean Temperature 46 °F -  
Max Temperature 50 °F 48 °F 62 °F (2009)
Min Temperature 42 °F 40 °F 32 °F (2013)
Degree Days  
Heating Degree Days 19    
Moisture  
Dew Point 45 °F    
Average Humidity 97    
Maximum Humidity 100    
Minimum Humidity 87    
Precipitation  
Precipitation 2.98 in - - ()
Sea Level Pressure  
Sea Level Pressure 29.76 in    
Wind  
Wind Speed 34 mph (SSW)    
Max Wind Speed 50 mph    
Max Gust Speed 70 mph    
Visibility 2 miles    
Events Rain    
Averages and records for this station are not official NWS values.
T = Trace of Precipitation, MM = Missing Value Source: NWS Daily Summary

Daily Weather History Graph

Daily Weather History Graph

Search for Another Location

Airport or City:

Trip Planner

Search our weather history database for the weather conditions in past years. The results will help you decide how hot, cold, wet, or windy it might be!

Date:

Astronomy

Jan. 18, 2012 Rise Set
Actual Time 7:47 AM PST 5:05 PM PST
Civil Twilight 7:15 AM PST 5:37 PM PST
Nautical Twilight 6:39 AM PST 6:13 PM PST
Astronomical Twilight 6:05 AM PST 6:48 PM PST
Moon 3:25 AM PST (1/18) 12:47 PM PST (1/18)
Length of Visible Light 10h 22m
Length of Day
9h 17m
Waning Crescent, 23% of the Moon is Illuminated
Jan 18
Waning Crescent
Jan 22
New
Jan 30
First Quarter
Feb 7
Full
Feb 14
Last Quarter

Hourly Weather History & Observations

Time (PST) Temp. Windchill Dew Point Humidity Pressure Visibility Wind Dir Wind Speed Gust Speed Precip Events Conditions
12:15 AM 46.4 °F 38.1 °F 44.6 °F 93% 29.95 in 4.0 mi SSW 24.2 mph 40.3 mph 0.02 in Rain Rain
12:35 AM 44.6 °F 34.6 °F 44.6 °F 100% 29.95 in 4.0 mi SSW 31.1 mph 43.7 mph 0.05 in Rain Light Rain
12:55 AM 44.6 °F 35.3 °F 44.6 °F 100% 29.93 in 3.0 mi SSW 26.5 mph 34.5 mph 0.10 in Rain Rain
1:35 AM 44.6 °F 34.7 °F 42.8 °F 93% 29.91 in 4.0 mi South 29.9 mph 40.3 mph 0.10 in Rain Rain
1:55 AM 44.6 °F 34.6 °F 42.8 °F 93% 29.90 in 4.0 mi South 31.1 mph 43.7 mph 0.14 in Rain Light Rain
2:15 AM 44.6 °F 34.1 °F 42.8 °F 93% 29.89 in 4.0 mi South 34.5 mph 50.6 mph 0.02 in Rain Rain
2:35 AM 44.6 °F 34.6 °F 42.8 °F 93% 29.87 in 4.0 mi South 31.1 mph 41.4 mph 0.05 in Rain Rain
2:55 AM 42.8 °F 32.1 °F 41.0 °F 93% 29.85 in 5.0 mi South 31.1 mph 40.3 mph 0.09 in Rain Rain
3:15 AM 42.8 °F 31.9 °F 41.0 °F 93% 29.82 in 4.0 mi South 32.2 mph 47.2 mph 0.03 in Rain Rain
3:35 AM 42.8 °F 31.0 °F 41.0 °F 93% 29.79 in 5.0 mi South 39.1 mph 52.9 mph 0.04 in Rain Light Rain
3:55 AM 42.8 °F 31.6 °F 41.0 °F 93% 29.75 in 5.0 mi South 34.5 mph 49.5 mph 0.07 in Rain Light Rain
4:15 AM 44.6 °F 35.1 °F 41.0 °F 87% 29.73 in 5.0 mi South 27.6 mph 39.1 mph 0.02 in Rain Light Rain
4:35 AM 44.6 °F 34.2 °F 42.8 °F 93% 29.72 in 5.0 mi South 33.4 mph 46.0 mph 0.05 in Rain Rain
4:55 AM 44.6 °F 34.1 °F 42.8 °F 93% 29.70 in 4.0 mi South 34.5 mph 48.3 mph 0.09 in Rain Rain
5:15 AM 44.6 °F 33.9 °F 42.8 °F 93% 29.68 in 3.0 mi South 35.7 mph 55.2 mph 0.03 in Rain Rain
5:35 AM 44.6 °F 34.2 °F 42.8 °F 93% 29.68 in 3.0 mi South 33.4 mph 49.5 mph 0.07 in Rain Rain
5:55 AM 44.6 °F 33.6 °F 42.8 °F 93% 29.65 in 2.5 mi South 38.0 mph 54.1 mph 0.10 in Rain Rain
6:15 AM 44.6 °F 32.4 °F 44.6 °F 100% 29.65 in 2.0 mi South 48.3 mph 70.2 mph 0.02 in Rain Rain
6:35 AM 44.6 °F 32.4 °F 44.6 °F 100% 29.65 in 2.0 mi South 48.3 mph 61.0 mph 0.06 in Rain Rain
6:55 AM 44.6 °F 33.1 °F 44.6 °F 100% 29.64 in 2.0 mi South 42.6 mph 64.4 mph 0.09 in Rain Rain
7:15 AM 44.6 °F 32.9 °F 44.6 °F 100% 29.64 in 2.0 mi South 43.7 mph 62.1 mph 0.04 in Rain Rain
7:35 AM 44.6 °F 32.3 °F 44.6 °F 100% 29.65 in 2.0 mi South 49.5 mph 64.4 mph 0.11 in Rain Rain
7:55 AM 44.6 °F 32.8 °F 44.6 °F 100% 29.67 in 2.0 mi SSW 44.9 mph 61.0 mph 0.17 in Rain Rain
8:15 AM 46.4 °F 35.5 °F 44.6 °F 93% 29.68 in 1.8 mi SSW 43.7 mph 58.7 mph 0.02 in Rain Rain
8:35 AM 46.4 °F 35.6 °F 44.6 °F 93% 29.69 in 1.2 mi SSW 42.6 mph 57.5 mph 0.04 in Rain Rain
8:55 AM 46.4 °F 36.3 °F 44.6 °F 93% 29.70 in 1.0 mi South 36.8 mph 61.0 mph 0.08 in Rain Rain
9:15 AM 46.4 °F 36.1 °F 46.4 °F 100% 29.71 in 1.0 mi South 38.0 mph 57.5 mph 0.02 in Rain Rain
9:35 AM 46.4 °F 36.1 °F 44.6 °F 93% 29.71 in 1.0 mi SSW 38.0 mph 52.9 mph 0.04 in Rain Rain
9:55 AM 46.4 °F 36.0 °F 46.4 °F 100% 29.72 in 1.2 mi South 39.1 mph 56.4 mph 0.08 in Rain Rain
10:15 AM 46.4 °F 35.2 °F 46.4 °F 100% 29.70 in 1.5 mi South 46.0 mph 58.7 mph 0.04 in Rain Rain
10:35 AM 46.4 °F 35.3 °F 46.4 °F 100% 29.71 in 1.5 mi South 44.9 mph 58.7 mph 0.07 in Rain Light Rain
10:55 AM 46.4 °F 35.3 °F 46.4 °F 100% 29.70 in 1.0 mi South 44.9 mph 62.1 mph 0.10 in Rain Rain
11:15 AM 46.4 °F 36.0 °F 46.4 °F 100% 29.71 in 1.2 mi SSW 39.1 mph 56.4 mph 0.05 in Rain Rain
11:35 AM 46.4 °F 36.4 °F 46.4 °F 100% 29.73 in 1.2 mi South 35.7 mph 70.2 mph 0.11 in Rain Rain
11:55 AM 46.4 °F 35.6 °F 46.4 °F 100% 29.73 in 1.0 mi SSW 42.6 mph 55.2 mph 0.22 in Rain Rain
12:15 PM 46.4 °F 35.8 °F 46.4 °F 100% 29.75 in 1.2 mi SSW 40.3 mph 52.9 mph 0.02 in Rain Rain
12:35 PM 46.4 °F 36.4 °F 46.4 °F 100% 29.75 in 0.8 mi South 35.7 mph 50.6 mph 0.12 in Rain Heavy Rain
12:55 PM 46.4 °F 36.3 °F 46.4 °F 100% 29.76 in 1.0 mi SSW 36.8 mph 51.8 mph 0.22 in Rain Rain
1:15 PM 46.4 °F 37.0 °F 46.4 °F 100% 29.76 in 0.8 mi SSW 31.1 mph 41.4 mph 0.09 in Rain Rain
1:35 PM 46.4 °F 37.0 °F 46.4 °F 100% 29.77 in 1.0 mi South 31.1 mph 51.8 mph 0.18 in Rain Rain
1:55 PM 46.4 °F 36.9 °F 46.4 °F 100% 29.76 in 1.0 mi SSW 32.2 mph 48.3 mph 0.30 in Rain Rain
2:15 PM 46.4 °F 36.7 °F 46.4 °F 100% 29.77 in 1.0 mi South 33.4 mph 48.3 mph 0.08 in Rain Rain
2:35 PM 46.4 °F 36.1 °F 46.4 °F 100% 29.76 in 1.0 mi South 38.0 mph 48.3 mph 0.18 in Rain Rain
2:55 PM 48.2 °F - 46.4 °F 93% 29.77 in 1.2 mi South 38.0 mph 51.8 mph 0.24 in Rain Rain
3:15 PM 48.2 °F - 46.4 °F 93% 29.77 in 1.2 mi South 38.0 mph 49.5 mph 0.05 in Rain Rain
3:35 PM 46.4 °F 36.5 °F 46.4 °F 100% 29.76 in 1.2 mi SSW 34.5 mph 50.6 mph 0.13 in Rain Rain
3:55 PM 48.2 °F - 46.4 °F 93% 29.77 in 1.2 mi South 35.7 mph 47.2 mph 0.19 in Rain Heavy Rain
4:15 PM 48.2 °F - 46.4 °F 93% 29.77 in 1.2 mi SSW 32.2 mph 47.2 mph 0.05 in Rain Rain
4:35 PM 48.2 °F - 46.4 °F 93% 29.78 in 2.0 mi South 34.5 mph 47.2 mph 0.09 in Rain Light Rain
4:55 PM 48.2 °F - 46.4 °F 93% 29.78 in 1.5 mi SSW 36.8 mph 44.9 mph 0.11 in Rain Rain
5:15 PM 48.2 °F - 46.4 °F 93% 29.79 in 2.5 mi SSW 32.2 mph 50.6 mph 0.03 in Rain Rain
5:35 PM 48.2 °F - 46.4 °F 93% 29.79 in 2.0 mi SSW 32.2 mph 40.3 mph 0.08 in Rain Rain
5:55 PM 48.2 °F - 46.4 °F 93% 29.79 in 2.0 mi South 29.9 mph 39.1 mph 0.11 in Rain Rain
6:15 PM 48.2 °F - 46.4 °F 93% 29.79 in 2.5 mi SSW 32.2 mph 42.6 mph 0.02 in Rain Rain
6:35 PM 48.2 °F - 46.4 °F 93% 29.80 in 2.5 mi South 32.2 mph 43.7 mph 0.04 in Rain Rain
6:55 PM 48.2 °F - 48.2 °F 100% 29.80 in 2.0 mi South 36.8 mph 48.3 mph 0.06 in Rain Rain
7:35 PM 50.0 °F - 48.2 °F 94% 29.83 in 4.0 mi SSW 23.0 mph 43.7 mph 0.04 in Rain Light Rain
7:55 PM 48.2 °F - 48.2 °F 100% 29.80 in 1.8 mi SSW 26.5 mph 34.5 mph 0.12 in Rain Heavy Rain
8:15 PM 48.2 °F - 48.2 °F 100% 29.80 in 2.5 mi SSW 34.5 mph 43.7 mph 0.09 in Rain Rain
8:35 PM 48.2 °F - 48.2 °F 100% 29.80 in 2.5 mi SW 17.3 mph 46.0 mph 0.15 in Rain Light Rain
8:55 PM 48.2 °F - 48.2 °F 100% 29.80 in 2.0 mi SSW 24.2 mph 43.7 mph 0.17 in Rain Rain
9:15 PM 48.2 °F - 48.2 °F 100% 29.81 in 1.8 mi SSW 26.5 mph 42.6 mph 0.03 in Rain Light Rain
9:35 PM 48.2 °F - 48.2 °F 100% 29.82 in 2.5 mi South 28.8 mph 39.1 mph 0.07 in Rain Rain
9:55 PM 48.2 °F - 48.2 °F 100% 29.80 in 1.8 mi SSW 26.5 mph 33.4 mph 0.13 in Rain Heavy Rain
10:15 PM 48.2 °F - 48.2 °F 100% 29.81 in 2.0 mi South 29.9 mph 42.6 mph 0.03 in Rain Rain
10:35 PM 48.2 °F - 48.2 °F 100% 29.81 in 1.8 mi South 29.9 mph 40.3 mph 0.06 in Rain Rain
10:55 PM 48.2 °F - 48.2 °F 100% 29.81 in 3.0 mi SSW 25.3 mph 36.8 mph 0.09 in Rain Rain
11:15 PM 48.2 °F - 48.2 °F 100% 29.81 in 2.5 mi SSW 32.2 mph 41.4 mph 0.04 in Rain Heavy Rain
11:35 PM 48.2 °F - 48.2 °F 100% 29.81 in 1.5 mi SSW 29.9 mph 40.3 mph 0.14 in Rain Heavy Rain
11:55 PM 48.2 °F - 48.2 °F 100% 29.81 in 2.5 mi SSW 33.4 mph 44.9 mph 0.20 in Rain Rain